Location: Unspecified
(0.0000°N, 0.0000°E)
Time: 12:47:49
(UTC+00:00)

ISS - Pass Details

Date: 25 May 2018
Orbit: 402 x 407 km, 51.6° (Epoch: 22 May)

Event Time Altitude Azimuth Distance (km) Brightness Sun altitude
Exits shadow 05:02:53 - 304° (NW) 1,565 -1.2 -12.6°
Reaches altitude 10° 05:03:12 10° 302° (WNW) 1,445 -1.4 -12.5°
Maximum altitude 05:06:11 34° 235° (SW) 679 -3.2 -11.8°
Drops below altitude 10° 05:09:12 10° 167° (SSE) 1,453 -1.1 -11.1°
Sets 05:11:23 0° 158° (SSE) 2,315 0.0 -10.6°
